| time (UTC) | temp C | wind direction | speed KPH | gust KPH | rain 1hr cm | rain 24hr cm | rain mn cm | humidity % | barometer mb |
| 20260504190703 | 16 | 322 | 4.8 | 12.9 | 0.00 | 0.00 | 0.00 | 33 | 1000.4 |
| 20260504173702 | 14 | 254 | 1.6 | 11.3 | 0.00 | 0.00 | 0.00 | 32 | 1000.9 |
| 20260504170703 | 12 | 274 | 4.8 | 9.7 | 0.00 | 0.00 | 0.00 | 39 | 1001.3 |
| 20260504170203 | 12 | 258 | 3.2 | 12.9 | 0.00 | 0.00 | 0.00 | 40 | 1001.4 |
| 20260504160203 | 13 | 262 | 3.2 | 11.3 | 0.00 | 0.00 | 0.00 | 41 | 1001.7 |
| 20260504140703 | 9 | 37 | 1.6 | 4.8 | 0.00 | 0.00 | 0.00 | 61 | 1003.1 |
| 20260504140203 | 8 | 37 | 1.6 | 4.8 | 0.00 | 0.00 | 0.00 | 61 | 1003.1 |
| 20260504120203 | 1 | 105 | 0.0 | 3.2 | 0.00 | 0.00 | 0.00 | 81 | 1004.6 |
| 20260504110703 | 0 | 89 | 3.2 | 4.8 | 0.00 | 0.03 | 0.00 | 86 | 1004.7 |
| 20260504110204 | 0 | 83 | 1.6 | 4.8 | 0.00 | 0.03 | 0.00 | 87 | 1004.6 |
| 20260504100203 | -2 | 292 | 0.0 | 0.0 | 0.00 | 0.03 | 0.00 | 89 | 1004.7 |
| 20260504060201 | -1 | 292 | 0.0 | 1.6 | 0.00 | 0.05 | 0.00 | 88 | 1005.0 |
| 20260504050702 | 0 | 247 | 3.2 | 4.8 | 0.00 | 0.08 | 0.00 | 86 | 1005.2 |
| 20260504050201 | 0 | 246 | 3.2 | 4.8 | 0.00 | 0.08 | 0.00 | 86 | 1005.2 |
| 20260504043201 | 0 | 226 | 1.6 | 4.8 | 0.00 | 0.08 | 0.00 | 84 | 1005.3 |
| 20260504040701 | 0 | 234 | 1.6 | 3.2 | 0.00 | 0.08 | 0.00 | 83 | 1005.5 |
| 20260504030702 | 1 | 268 | 4.8 | 9.7 | 0.00 | 0.08 | 0.08 | 79 | 1005.7 |
| 20260504030202 | 1 | 271 | 3.2 | 9.7 | 0.00 | 0.08 | 0.08 | 79 | 1005.7 |
| 20260504020702 | 3 | 240 | 1.6 | 3.2 | 0.00 | 0.10 | 0.08 | 73 | 1006.0 |
| 20260504020202 | 3 | 239 | 1.6 | 9.7 | 0.00 | 0.10 | 0.08 | 72 | 1006.1 |
| 20260504013701 | 4 | 256 | 3.2 | 4.8 | 0.00 | 0.10 | 0.08 | 69 | 1006.2 |
| 20260504010702 | 5 | 265 | 3.2 | 4.8 | 0.00 | 0.10 | 0.08 | 66 | 1006.4 |
| 20260504003702 | 5 | 5 | 1.6 | 3.2 | 0.00 | 0.10 | 0.08 | 67 | 1006.1 |
| 20260504000204 | 5 | 274 | 1.6 | 8.0 | 0.00 | 0.10 | 0.08 | 65 | 1006.2 |
| 20260503233702 | 6 | 265 | 3.2 | 4.8 | 0.00 | 0.10 | 0.08 | 65 | 1006.2 |
| 20260503230702 | 6 | 285 | 4.8 | 9.7 | 0.00 | 0.10 | 0.08 | 63 | 1006.2 |
| 20260503230202 | 6 | 291 | 3.2 | 11.3 | 0.00 | 0.10 | 0.08 | 63 | 1006.3 |
| 20260503223702 | 6 | 257 | 1.6 | 9.7 | 0.00 | 0.10 | 0.08 | 61 | 1006.4 |
| 20260503223202 | 6 | 269 | 3.2 | 19.3 | 0.00 | 0.10 | 0.08 | 61 | 1006.3 |
| 20260503213202 | 7 | 268 | 3.2 | 16.1 | 0.00 | 0.10 | 0.08 | 58 | 1006.5 |
| 20260503210702 | 8 | 286 | 6.4 | 14.5 | 0.00 | 0.10 | 0.08 | 57 | 1006.6 |
| 20260503203203 | 8 | 263 | 8.0 | 22.5 | 0.00 | 0.10 | 0.08 | 58 | 1006.4 |
| 20260503200703 | 8 | 307 | 4.8 | 14.5 | 0.00 | 0.10 | 0.08 | 58 | 1006.4 |